Year,Month,Day,Hour,Minute,Value (Times are PST for temperature in C)
2008,09,14,00,00,11.10
2008,09,14,00,01,11.10
2008,09,14,00,02,11.10
2008,09,14,00,03,11.10
2008,09,14,00,04,11.10
2008,09,14,00,05,11.00
2008,09,14,00,06,10.90
2008,09,14,00,07,10.90
2008,09,14,00,08,10.90
2008,09,14,00,09,10.90
2008,09,14,00,10,10.90
2008,09,14,00,11,10.90
2008,09,14,00,12,10.90
2008,09,14,00,13,10.90
2008,09,14,00,14,10.90
2008,09,14,00,15,10.90
2008,09,14,00,16,10.90
2008,09,14,00,17,10.90
2008,09,14,00,18,10.80
2008,09,14,00,19,10.80
2008,09,14,00,20,10.80
2008,09,14,00,21,10.90
2008,09,14,00,22,10.90
2008,09,14,00,23,10.90
2008,09,14,00,24,10.90
2008,09,14,00,25,10.90
2008,09,14,00,26,10.90
2008,09,14,00,27,10.90
2008,09,14,00,28,10.90
2008,09,14,00,29,10.90
2008,09,14,00,30,10.90
2008,09,14,00,31,10.90
2008,09,14,00,32,10.90
2008,09,14,00,33,10.90
2008,09,14,00,34,10.90
2008,09,14,00,35,10.90
2008,09,14,00,36,10.90
2008,09,14,00,37,10.90
2008,09,14,00,38,10.90
2008,09,14,00,39,10.90
2008,09,14,00,40,10.90
2008,09,14,00,41,10.90
2008,09,14,00,42,10.90
2008,09,14,00,43,10.90
2008,09,14,00,44,10.90
2008,09,14,00,45,10.90
2008,09,14,00,46,10.80
2008,09,14,00,47,10.80
2008,09,14,00,48,10.80
2008,09,14,00,49,10.80
2008,09,14,00,50,10.80
2008,09,14,00,51,10.80
2008,09,14,00,52,10.80
2008,09,14,00,53,10.80
2008,09,14,00,54,10.80
2008,09,14,00,55,10.80
2008,09,14,00,56,10.80
2008,09,14,00,57,10.80
2008,09,14,00,58,10.80
2008,09,14,00,59,10.80
2008,09,14,01,00,10.90
2008,09,14,01,01,10.90
2008,09,14,01,02,10.80
2008,09,14,01,03,10.80
2008,09,14,01,04,10.90
2008,09,14,01,05,10.90
2008,09,14,01,06,10.80
2008,09,14,01,07,10.90
2008,09,14,01,08,10.90
2008,09,14,01,09,10.90
2008,09,14,01,10,10.90
2008,09,14,01,11,10.90
2008,09,14,01,12,10.90
2008,09,14,01,13,10.90
2008,09,14,01,14,10.90
2008,09,14,01,15,10.90
2008,09,14,01,16,10.90
2008,09,14,01,17,10.90
2008,09,14,01,18,10.90
2008,09,14,01,19,10.90
2008,09,14,01,20,10.90
2008,09,14,01,21,10.90
2008,09,14,01,22,10.90
2008,09,14,01,23,10.90
2008,09,14,01,24,10.90
2008,09,14,01,25,10.90
2008,09,14,01,26,10.90
2008,09,14,01,27,10.90
2008,09,14,01,28,10.90
2008,09,14,01,29,10.90
2008,09,14,01,30,10.90
2008,09,14,01,31,10.90
2008,09,14,01,32,10.90
2008,09,14,01,33,10.90
2008,09,14,01,34,10.80
2008,09,14,01,35,10.80
2008,09,14,01,36,10.80
2008,09,14,01,37,10.80
2008,09,14,01,38,10.80
2008,09,14,01,39,10.80
2008,09,14,01,40,10.80
2008,09,14,01,41,10.80
2008,09,14,01,42,10.80
2008,09,14,01,43,10.80
2008,09,14,01,44,10.80
2008,09,14,01,45,10.70
2008,09,14,01,46,10.70
2008,09,14,01,47,10.70
2008,09,14,01,48,10.70
2008,09,14,01,49,10.70
2008,09,14,01,50,10.70
2008,09,14,01,51,10.70
2008,09,14,01,52,10.70
2008,09,14,01,53,10.70
2008,09,14,01,54,10.70
2008,09,14,01,55,10.70
2008,09,14,01,56,10.70
2008,09,14,01,57,10.70
2008,09,14,01,58,10.70
2008,09,14,01,59,10.70
2008,09,14,02,00,10.70
2008,09,14,02,01,10.70
2008,09,14,02,02,10.60
2008,09,14,02,03,10.60
2008,09,14,02,04,10.60
2008,09,14,02,05,10.60
2008,09,14,02,06,10.60
2008,09,14,02,07,10.60
2008,09,14,02,08,10.60
2008,09,14,02,09,10.60
2008,09,14,02,10,10.60
2008,09,14,02,11,10.60
2008,09,14,02,12,10.60
2008,09,14,02,13,10.50
2008,09,14,02,14,10.40
2008,09,14,02,15,10.40
2008,09,14,02,16,10.40
2008,09,14,02,17,10.40
2008,09,14,02,18,10.40
2008,09,14,02,19,10.40
2008,09,14,02,20,10.40
2008,09,14,02,21,10.40
2008,09,14,02,22,10.30
2008,09,14,02,23,10.30
2008,09,14,02,24,10.30
2008,09,14,02,25,10.30
2008,09,14,02,26,10.30
2008,09,14,02,27,10.30
2008,09,14,02,28,10.30
2008,09,14,02,29,10.30
2008,09,14,02,30,10.20
2008,09,14,02,31,10.20
2008,09,14,02,32,10.20
2008,09,14,02,33,10.20
2008,09,14,02,34,10.20
2008,09,14,02,35,10.20
2008,09,14,02,36,10.10
2008,09,14,02,37,10.10
2008,09,14,02,38,10.10
2008,09,14,02,39,10.10
2008,09,14,02,40,10.10
2008,09,14,02,41,10.10
2008,09,14,02,42,10.10
2008,09,14,02,43,10.10
2008,09,14,02,44,10.10
2008,09,14,02,45,10.00
2008,09,14,02,46,9.90
2008,09,14,02,47,9.90
2008,09,14,02,48,9.90
2008,09,14,02,49,9.90
2008,09,14,02,50,9.90
2008,09,14,02,51,9.90
2008,09,14,02,52,9.90
2008,09,14,02,53,9.90
2008,09,14,02,54,9.90
2008,09,14,02,55,9.90
2008,09,14,02,56,9.90
2008,09,14,02,57,9.90
2008,09,14,02,58,9.90
2008,09,14,02,59,9.90
2008,09,14,03,00,9.90
2008,09,14,03,01,9.80
2008,09,14,03,02,9.80
2008,09,14,03,03,9.90
2008,09,14,03,04,9.90
2008,09,14,03,05,9.90
2008,09,14,03,06,9.80
2008,09,14,03,07,9.90
2008,09,14,03,08,9.90
2008,09,14,03,09,9.90
2008,09,14,03,10,9.90
2008,09,14,03,11,9.90
2008,09,14,03,12,9.90
2008,09,14,03,13,9.90
2008,09,14,03,14,9.90
2008,09,14,03,15,9.90
2008,09,14,03,16,9.80
2008,09,14,03,17,9.80
2008,09,14,03,18,9.80
2008,09,14,03,19,9.70
2008,09,14,03,20,9.70
2008,09,14,03,21,9.70
2008,09,14,03,22,9.70
2008,09,14,03,23,9.70
2008,09,14,03,24,9.70
2008,09,14,03,25,9.70
2008,09,14,03,26,9.70
2008,09,14,03,27,9.70
2008,09,14,03,28,9.70
2008,09,14,03,29,9.70
2008,09,14,03,30,9.70
2008,09,14,03,31,9.70
2008,09,14,03,32,9.70
2008,09,14,03,33,9.70
2008,09,14,03,34,9.70
2008,09,14,03,35,9.70
2008,09,14,03,36,9.70
2008,09,14,03,37,9.70
2008,09,14,03,38,9.60
2008,09,14,03,39,9.60
2008,09,14,03,40,9.60
2008,09,14,03,41,9.60
2008,09,14,03,42,9.60
2008,09,14,03,43,9.60
2008,09,14,03,44,9.60
2008,09,14,03,45,9.60
2008,09,14,03,46,9.60
2008,09,14,03,47,9.60
2008,09,14,03,48,9.60
2008,09,14,03,49,9.60
2008,09,14,03,50,9.60
2008,09,14,03,51,9.60
2008,09,14,03,52,9.60
2008,09,14,03,53,9.60
2008,09,14,03,54,9.50
2008,09,14,03,55,9.50
2008,09,14,03,56,9.50
2008,09,14,03,57,9.50
2008,09,14,03,58,9.50
2008,09,14,03,59,9.50
2008,09,14,04,00,9.50
2008,09,14,04,01,9.40
2008,09,14,04,02,9.40
2008,09,14,04,03,9.40
2008,09,14,04,04,9.40
2008,09,14,04,05,9.40
2008,09,14,04,06,9.40
2008,09,14,04,07,9.40
2008,09,14,04,08,9.40
2008,09,14,04,09,9.40
2008,09,14,04,10,9.40
2008,09,14,04,11,9.40
2008,09,14,04,12,9.40
2008,09,14,04,13,9.40
2008,09,14,04,14,9.40
2008,09,14,04,15,9.40
2008,09,14,04,16,9.40
2008,09,14,04,17,9.40
2008,09,14,04,18,9.40
2008,09,14,04,19,9.30
2008,09,14,04,20,9.30
2008,09,14,04,21,9.30
2008,09,14,04,22,9.30
2008,09,14,04,23,9.30
2008,09,14,04,24,9.30
2008,09,14,04,25,9.30
2008,09,14,04,26,9.30
2008,09,14,04,27,9.30
2008,09,14,04,28,9.30
2008,09,14,04,29,9.30
2008,09,14,04,30,9.30
2008,09,14,04,31,9.30
2008,09,14,04,32,9.30
2008,09,14,04,33,9.30
2008,09,14,04,34,9.20
2008,09,14,04,35,9.20
2008,09,14,04,36,9.20
2008,09,14,04,37,9.20
2008,09,14,04,38,9.20
2008,09,14,04,39,9.20
2008,09,14,04,40,9.20
2008,09,14,04,41,9.20
2008,09,14,04,42,9.20
2008,09,14,04,43,9.20
2008,09,14,04,44,9.20
2008,09,14,04,45,9.20
2008,09,14,04,46,9.20
2008,09,14,04,47,9.20
2008,09,14,04,48,9.20
2008,09,14,04,49,9.20
2008,09,14,04,50,9.20
2008,09,14,04,51,9.20
2008,09,14,04,52,9.20
2008,09,14,04,53,9.20
2008,09,14,04,54,9.20
2008,09,14,04,55,9.20
2008,09,14,04,56,9.20
2008,09,14,04,57,9.20
2008,09,14,04,58,9.20
2008,09,14,04,59,9.20
2008,09,14,05,00,9.20
2008,09,14,05,01,9.20
2008,09,14,05,02,9.20
2008,09,14,05,03,9.20
2008,09,14,05,04,9.20
2008,09,14,05,05,9.20
2008,09,14,05,06,9.20
2008,09,14,05,07,9.20
2008,09,14,05,08,9.20
2008,09,14,05,09,9.20
2008,09,14,05,10,9.20
2008,09,14,05,11,9.20
2008,09,14,05,12,9.20
2008,09,14,05,13,9.20
2008,09,14,05,14,9.20
2008,09,14,05,15,9.20
2008,09,14,05,16,9.20
2008,09,14,05,17,9.20
2008,09,14,05,18,9.20
2008,09,14,05,19,9.20
2008,09,14,05,20,9.20
2008,09,14,05,21,9.20
2008,09,14,05,22,9.20
2008,09,14,05,23,9.20
2008,09,14,05,24,9.20
2008,09,14,05,25,9.20
2008,09,14,05,26,9.20
2008,09,14,05,27,9.20
2008,09,14,05,28,9.20
2008,09,14,05,29,9.20
2008,09,14,05,30,9.20
2008,09,14,05,31,9.20
2008,09,14,05,32,9.20
2008,09,14,05,33,9.20
2008,09,14,05,34,9.20
2008,09,14,05,35,9.20
2008,09,14,05,36,9.20
2008,09,14,05,37,9.20
2008,09,14,05,38,9.20
2008,09,14,05,39,9.20
2008,09,14,05,40,9.20
2008,09,14,05,41,9.20
2008,09,14,05,42,9.20
2008,09,14,05,43,9.20
2008,09,14,05,44,9.20
2008,09,14,05,45,9.20
2008,09,14,05,46,9.20
2008,09,14,05,47,9.20
2008,09,14,05,48,9.20
2008,09,14,05,49,9.20
2008,09,14,05,50,9.20
2008,09,14,05,51,9.20
2008,09,14,05,52,9.20
2008,09,14,05,53,9.20
2008,09,14,05,54,9.20
2008,09,14,05,55,9.20
2008,09,14,05,56,9.20
2008,09,14,05,57,9.20
2008,09,14,05,58,9.20
2008,09,14,05,59,9.20
2008,09,14,06,00,9.20
2008,09,14,06,01,9.20
2008,09,14,06,02,9.20
2008,09,14,06,03,9.20
2008,09,14,06,04,9.20
2008,09,14,06,05,9.20
2008,09,14,06,06,9.20
2008,09,14,06,07,9.20
2008,09,14,06,08,9.20
2008,09,14,06,09,9.20
2008,09,14,06,10,9.20
2008,09,14,06,11,9.10
2008,09,14,06,12,9.10
2008,09,14,06,13,9.10
2008,09,14,06,14,9.10
2008,09,14,06,15,9.10
2008,09,14,06,16,9.10
2008,09,14,06,17,9.10
2008,09,14,06,18,9.20
2008,09,14,06,19,9.20
2008,09,14,06,20,9.20
2008,09,14,06,21,9.20
2008,09,14,06,22,9.20
2008,09,14,06,23,9.20
2008,09,14,06,24,9.20
2008,09,14,06,25,9.20
2008,09,14,06,26,9.20
2008,09,14,06,27,9.20
2008,09,14,06,28,9.20
2008,09,14,06,29,9.20
2008,09,14,06,30,9.20
2008,09,14,06,31,9.20
2008,09,14,06,32,9.20
2008,09,14,06,33,9.10
2008,09,14,06,34,9.10
2008,09,14,06,35,9.10
2008,09,14,06,36,9.10
2008,09,14,06,37,9.10
2008,09,14,06,38,9.10
2008,09,14,06,39,9.10
2008,09,14,06,40,9.10
2008,09,14,06,41,9.10
2008,09,14,06,42,9.20
2008,09,14,06,43,9.20
2008,09,14,06,44,9.20
2008,09,14,06,45,9.20
2008,09,14,06,46,9.20
2008,09,14,06,47,9.30
2008,09,14,06,48,9.30
2008,09,14,06,49,9.30
2008,09,14,06,50,9.20
2008,09,14,06,51,9.30
2008,09,14,06,52,9.30
2008,09,14,06,53,9.40
2008,09,14,06,54,9.40
2008,09,14,06,55,9.50
2008,09,14,06,56,9.50
2008,09,14,06,57,9.50
2008,09,14,06,58,9.60
2008,09,14,06,59,9.60
2008,09,14,07,00,9.60
2008,09,14,07,01,9.70
2008,09,14,07,02,9.70
2008,09,14,07,03,9.70
2008,09,14,07,04,9.70
2008,09,14,07,05,9.70
2008,09,14,07,06,9.70
2008,09,14,07,07,9.60
2008,09,14,07,08,9.60
2008,09,14,07,09,9.60
2008,09,14,07,10,9.60
2008,09,14,07,11,9.60
2008,09,14,07,12,9.60
2008,09,14,07,13,9.60
2008,09,14,07,14,9.60
2008,09,14,07,15,9.60
2008,09,14,07,16,9.60
2008,09,14,07,17,9.60
2008,09,14,07,18,9.60
2008,09,14,07,19,9.50
2008,09,14,07,20,9.50
2008,09,14,07,21,9.50
2008,09,14,07,22,9.40
2008,09,14,07,23,9.40
2008,09,14,07,24,9.40
2008,09,14,07,25,9.30
2008,09,14,07,26,9.30
2008,09,14,07,27,9.30
2008,09,14,07,28,9.30
2008,09,14,07,29,9.30
2008,09,14,07,30,9.30
2008,09,14,07,31,9.30
2008,09,14,07,32,9.30
2008,09,14,07,33,9.30
2008,09,14,07,34,9.40
2008,09,14,07,35,9.40
2008,09,14,07,36,9.40
2008,09,14,07,37,9.40
2008,09,14,07,38,9.50
2008,09,14,07,39,9.50
2008,09,14,07,40,9.50
2008,09,14,07,41,9.50
2008,09,14,07,42,9.60
2008,09,14,07,43,9.60
2008,09,14,07,44,9.60
2008,09,14,07,45,9.60
2008,09,14,07,46,9.70
2008,09,14,07,47,9.70
2008,09,14,07,48,9.70
2008,09,14,07,49,9.70
2008,09,14,07,50,9.70
2008,09,14,07,51,9.70
2008,09,14,07,52,9.70
2008,09,14,07,53,9.70
2008,09,14,07,54,9.70
2008,09,14,07,55,9.70
2008,09,14,07,56,9.70
2008,09,14,07,57,9.70
2008,09,14,07,58,9.70
2008,09,14,07,59,9.80
2008,09,14,08,00,9.90
2008,09,14,08,01,10.00
2008,09,14,08,02,10.20
2008,09,14,08,03,10.30
2008,09,14,08,04,10.40
2008,09,14,08,05,10.50
2008,09,14,08,06,10.60
2008,09,14,08,07,10.70
2008,09,14,08,08,10.80
2008,09,14,08,09,10.90
2008,09,14,08,10,10.90
2008,09,14,08,11,11.00
2008,09,14,08,12,11.10
2008,09,14,08,13,11.10
2008,09,14,08,14,11.20
2008,09,14,08,15,11.20
2008,09,14,08,16,11.30
2008,09,14,08,17,11.30
2008,09,14,08,18,11.40
2008,09,14,08,19,11.50
2008,09,14,08,20,11.70
2008,09,14,08,21,11.80
2008,09,14,08,22,11.90
2008,09,14,08,23,12.10
2008,09,14,08,24,12.20
2008,09,14,08,25,12.40
2008,09,14,08,26,12.50
2008,09,14,08,27,12.70
2008,09,14,08,28,12.90
2008,09,14,08,29,13.00
2008,09,14,08,30,13.20
2008,09,14,08,31,13.30
2008,09,14,08,32,13.50
2008,09,14,08,33,13.60
2008,09,14,08,34,13.70
2008,09,14,08,35,13.90
2008,09,14,08,36,14.00
2008,09,14,08,37,14.10
2008,09,14,08,38,14.20
2008,09,14,08,39,14.30
2008,09,14,08,40,14.40
2008,09,14,08,41,14.50
2008,09,14,08,42,14.50
2008,09,14,08,43,14.60
2008,09,14,08,44,14.60
2008,09,14,08,45,14.70
2008,09,14,08,46,14.70
2008,09,14,08,47,14.70
2008,09,14,08,48,14.80
2008,09,14,08,49,14.80
2008,09,14,08,50,14.80
2008,09,14,08,51,14.80
2008,09,14,08,52,14.80
2008,09,14,08,53,14.80
2008,09,14,08,54,14.80
2008,09,14,08,55,14.90
2008,09,14,08,56,14.90
2008,09,14,08,57,14.90
2008,09,14,08,58,15.00
2008,09,14,08,59,15.00
2008,09,14,09,00,15.00
2008,09,14,09,01,15.00
2008,09,14,09,02,15.10
2008,09,14,09,03,15.10
2008,09,14,09,04,15.10
2008,09,14,09,05,15.10
2008,09,14,09,06,15.10
2008,09,14,09,07,15.20
2008,09,14,09,08,15.20
2008,09,14,09,09,15.20
2008,09,14,09,10,15.20
2008,09,14,09,11,15.30
2008,09,14,09,12,15.30
2008,09,14,09,13,15.30
2008,09,14,09,14,15.30
2008,09,14,09,15,15.30
2008,09,14,09,16,15.40
2008,09,14,09,17,15.40
2008,09,14,09,18,15.40
2008,09,14,09,19,15.40
2008,09,14,09,20,15.40
2008,09,14,09,21,15.50
2008,09,14,09,22,15.50
2008,09,14,09,23,15.50
2008,09,14,09,24,15.60
2008,09,14,09,25,15.60
2008,09,14,09,26,15.60
2008,09,14,09,27,15.60
2008,09,14,09,28,15.60
2008,09,14,09,29,15.70
2008,09,14,09,30,15.70
2008,09,14,09,31,15.70
2008,09,14,09,32,15.80
2008,09,14,09,33,15.80
2008,09,14,09,34,15.80
2008,09,14,09,35,15.80
2008,09,14,09,36,15.80
2008,09,14,09,37,15.80
2008,09,14,09,38,15.80
2008,09,14,09,39,15.80
2008,09,14,09,40,15.90
2008,09,14,09,41,15.90
2008,09,14,09,42,15.90
2008,09,14,09,43,16.00
2008,09,14,09,44,16.10
2008,09,14,09,45,16.10
2008,09,14,09,46,16.10
2008,09,14,09,47,16.10
2008,09,14,09,48,16.10
2008,09,14,09,49,16.10
2008,09,14,09,50,16.10
2008,09,14,09,51,16.20
2008,09,14,09,52,16.20
2008,09,14,09,53,16.20
2008,09,14,09,54,16.20
2008,09,14,09,55,16.30
2008,09,14,09,56,16.30
2008,09,14,09,57,16.30
2008,09,14,09,58,16.30
2008,09,14,09,59,16.30
2008,09,14,10,00,16.30
2008,09,14,10,01,16.30
2008,09,14,10,02,16.30
2008,09,14,10,03,16.30
2008,09,14,10,04,16.40
2008,09,14,10,05,16.40
2008,09,14,10,06,16.40
2008,09,14,10,07,16.40
2008,09,14,10,08,16.40
2008,09,14,10,09,16.60
2008,09,14,10,10,16.60
2008,09,14,10,11,16.60
2008,09,14,10,12,16.60
2008,09,14,10,13,16.60
2008,09,14,10,14,16.70
2008,09,14,10,15,16.60
2008,09,14,10,16,16.60
2008,09,14,10,17,16.60
2008,09,14,10,18,16.60
2008,09,14,10,19,16.60
2008,09,14,10,20,16.60
2008,09,14,10,21,16.70
2008,09,14,10,22,16.70
2008,09,14,10,23,16.70
2008,09,14,10,24,16.80
2008,09,14,10,25,16.80
2008,09,14,10,26,16.90
2008,09,14,10,27,16.90
2008,09,14,10,28,16.90
2008,09,14,10,29,16.90
2008,09,14,10,30,16.90
2008,09,14,10,31,16.90
2008,09,14,10,32,16.90
2008,09,14,10,33,17.00
2008,09,14,10,34,17.00
2008,09,14,10,35,17.10
2008,09,14,10,36,17.20
2008,09,14,10,37,17.30
2008,09,14,10,38,17.30
2008,09,14,10,39,17.30
2008,09,14,10,40,17.40
2008,09,14,10,41,17.40
2008,09,14,10,42,17.40
2008,09,14,10,43,17.40
2008,09,14,10,44,17.50
2008,09,14,10,45,17.50
2008,09,14,10,46,17.50
2008,09,14,10,47,17.40
2008,09,14,10,48,17.40
2008,09,14,10,49,17.40
2008,09,14,10,50,17.50
2008,09,14,10,51,17.50
2008,09,14,10,52,17.60
2008,09,14,10,53,17.60
2008,09,14,10,54,17.60
2008,09,14,10,55,17.60
2008,09,14,10,56,17.70
2008,09,14,10,57,17.70
2008,09,14,10,58,17.70
2008,09,14,10,59,17.80
2008,09,14,11,00,17.80
2008,09,14,11,01,17.80
2008,09,14,11,02,17.80
2008,09,14,11,03,17.80
2008,09,14,11,04,17.80
2008,09,14,11,05,17.80
2008,09,14,11,06,17.80
2008,09,14,11,07,17.80
2008,09,14,11,08,17.70
2008,09,14,11,09,17.70
2008,09,14,11,10,17.70
2008,09,14,11,11,17.70
2008,09,14,11,12,17.70
2008,09,14,11,13,17.60
2008,09,14,11,14,17.70
2008,09,14,11,15,17.60
2008,09,14,11,16,17.50
2008,09,14,11,17,17.50
2008,09,14,11,18,17.50
2008,09,14,11,19,17.50
2008,09,14,11,20,17.50
2008,09,14,11,21,17.60
2008,09,14,11,22,17.60
2008,09,14,11,23,17.60
2008,09,14,11,24,17.70
2008,09,14,11,25,17.70
2008,09,14,11,26,17.80
2008,09,14,11,27,17.80
2008,09,14,11,28,17.90
2008,09,14,11,29,17.90
2008,09,14,11,30,17.90
2008,09,14,11,31,17.90
2008,09,14,11,32,18.10
2008,09,14,11,33,18.20
2008,09,14,11,34,18.20
2008,09,14,11,35,18.20
2008,09,14,11,36,18.20
2008,09,14,11,37,18.20
2008,09,14,11,38,18.20
2008,09,14,11,39,18.10
2008,09,14,11,40,18.10
2008,09,14,11,41,18.20
2008,09,14,11,42,18.20
2008,09,14,11,43,18.20
2008,09,14,11,44,18.20
2008,09,14,11,45,18.20
2008,09,14,11,46,18.20
2008,09,14,11,47,18.30
2008,09,14,11,48,18.30
2008,09,14,11,49,18.30
2008,09,14,11,50,18.30
2008,09,14,11,51,18.40
2008,09,14,11,52,18.40
2008,09,14,11,53,18.40
2008,09,14,11,54,18.40
2008,09,14,11,55,18.40
2008,09,14,11,56,18.50
2008,09,14,11,57,18.60
2008,09,14,11,58,18.60
2008,09,14,11,59,18.60
2008,09,14,12,00,18.60
2008,09,14,12,01,18.60
2008,09,14,12,02,18.70
2008,09,14,12,03,18.70
2008,09,14,12,04,18.80
2008,09,14,12,05,18.90
2008,09,14,12,06,18.90
2008,09,14,12,07,18.90
2008,09,14,12,08,18.90
2008,09,14,12,09,18.90
2008,09,14,12,10,18.90
2008,09,14,12,11,19.10
2008,09,14,12,12,19.10
2008,09,14,12,13,19.20
2008,09,14,12,14,19.20
2008,09,14,12,15,19.20
2008,09,14,12,16,19.20
2008,09,14,12,17,19.20
2008,09,14,12,18,19.20
2008,09,14,12,19,19.10
2008,09,14,12,20,19.10
2008,09,14,12,21,19.10
2008,09,14,12,22,19.00
2008,09,14,12,23,18.90
2008,09,14,12,24,18.90
2008,09,14,12,25,18.90
2008,09,14,12,26,18.90
2008,09,14,12,27,18.90
2008,09,14,12,28,18.90
2008,09,14,12,29,19.00
2008,09,14,12,30,19.10
2008,09,14,12,31,19.10
2008,09,14,12,32,19.20
2008,09,14,12,33,19.30
2008,09,14,12,34,19.30
2008,09,14,12,35,19.30
2008,09,14,12,36,19.40
2008,09,14,12,37,19.40
2008,09,14,12,38,19.40
2008,09,14,12,39,19.40
2008,09,14,12,40,19.40
2008,09,14,12,41,19.40
2008,09,14,12,42,19.30
2008,09,14,12,43,19.30
2008,09,14,12,44,19.40
2008,09,14,12,45,19.50
2008,09,14,12,46,19.60
2008,09,14,12,47,19.60
2008,09,14,12,48,19.60
2008,09,14,12,49,19.60
2008,09,14,12,50,19.50
2008,09,14,12,51,19.40
2008,09,14,12,52,19.40
2008,09,14,12,53,19.40
2008,09,14,12,54,19.50
2008,09,14,12,55,19.60
2008,09,14,12,56,19.70
2008,09,14,12,57,19.80
2008,09,14,12,58,19.90
2008,09,14,12,59,19.90
2008,09,14,13,00,20.00
2008,09,14,13,01,20.10
2008,09,14,13,02,20.10
2008,09,14,13,03,20.10
2008,09,14,13,04,19.90
2008,09,14,13,05,19.90
2008,09,14,13,06,19.90
2008,09,14,13,07,19.90
2008,09,14,13,08,19.90
2008,09,14,13,09,19.80
2008,09,14,13,10,19.80
2008,09,14,13,11,19.80
2008,09,14,13,12,19.90
2008,09,14,13,13,20.00
2008,09,14,13,14,20.10
2008,09,14,13,15,20.10
2008,09,14,13,16,20.10
2008,09,14,13,17,20.10
2008,09,14,13,18,20.20
2008,09,14,13,19,20.20
2008,09,14,13,20,20.20
2008,09,14,13,21,20.20
2008,09,14,13,22,20.20
2008,09,14,13,23,20.10
2008,09,14,13,24,19.90
2008,09,14,13,25,19.90
2008,09,14,13,26,19.80
2008,09,14,13,27,19.80
2008,09,14,13,28,19.80
2008,09,14,13,29,19.80
2008,09,14,13,30,19.80
2008,09,14,13,31,19.80
2008,09,14,13,32,19.70
2008,09,14,13,33,19.70
2008,09,14,13,34,19.70
2008,09,14,13,35,19.70
2008,09,14,13,36,19.70
2008,09,14,13,37,19.70
2008,09,14,13,38,19.70
2008,09,14,13,39,19.60
2008,09,14,13,40,19.70
2008,09,14,13,41,19.70
2008,09,14,13,42,19.80
2008,09,14,13,43,19.90
2008,09,14,13,44,20.00
2008,09,14,13,45,20.10
2008,09,14,13,46,20.20
2008,09,14,13,47,20.20
2008,09,14,13,48,20.20
2008,09,14,13,49,20.20
2008,09,14,13,50,20.20
2008,09,14,13,51,20.20
2008,09,14,13,52,20.20
2008,09,14,13,53,20.20
2008,09,14,13,54,20.20
2008,09,14,13,55,20.10
2008,09,14,13,56,20.10
2008,09,14,13,57,20.00
2008,09,14,13,58,20.10
2008,09,14,13,59,20.10
2008,09,14,14,00,20.20
2008,09,14,14,01,20.20
2008,09,14,14,02,20.20
2008,09,14,14,03,20.10
2008,09,14,14,04,20.10
2008,09,14,14,05,20.20
2008,09,14,14,06,20.20
2008,09,14,14,07,20.30
2008,09,14,14,08,20.30
2008,09,14,14,09,20.40
2008,09,14,14,10,20.40
2008,09,14,14,11,20.40
2008,09,14,14,12,20.50
2008,09,14,14,13,20.50
2008,09,14,14,14,20.50
2008,09,14,14,15,20.70
2008,09,14,14,16,20.70
2008,09,14,14,17,20.70
2008,09,14,14,18,20.70
2008,09,14,14,19,20.70
2008,09,14,14,20,20.70
2008,09,14,14,21,20.70
2008,09,14,14,22,20.80
2008,09,14,14,23,20.80
2008,09,14,14,24,20.80
2008,09,14,14,25,20.80
2008,09,14,14,26,20.80
2008,09,14,14,27,20.70
2008,09,14,14,28,20.70
2008,09,14,14,29,20.60
2008,09,14,14,30,20.60
2008,09,14,14,31,20.60
2008,09,14,14,32,20.60
2008,09,14,14,33,20.60
2008,09,14,14,34,20.60
2008,09,14,14,35,20.50
2008,09,14,14,36,20.50
2008,09,14,14,37,20.60
2008,09,14,14,38,20.60
2008,09,14,14,39,20.50
2008,09,14,14,40,20.50
2008,09,14,14,41,20.50
2008,09,14,14,42,20.50
2008,09,14,14,43,20.60
2008,09,14,14,44,20.60
2008,09,14,14,45,20.80
2008,09,14,14,46,20.90
2008,09,14,14,47,20.90
2008,09,14,14,48,20.90
2008,09,14,14,49,20.90
2008,09,14,14,50,20.80
2008,09,14,14,51,20.80
2008,09,14,14,52,20.70
2008,09,14,14,53,20.70
2008,09,14,14,54,20.70
2008,09,14,14,55,20.80
2008,09,14,14,56,20.80
2008,09,14,14,57,20.90
2008,09,14,14,58,20.90
2008,09,14,14,59,20.90
2008,09,14,15,00,20.90
2008,09,14,15,01,20.90
2008,09,14,15,02,20.90
2008,09,14,15,03,20.90
2008,09,14,15,04,20.90
2008,09,14,15,05,20.90
2008,09,14,15,06,21.00
2008,09,14,15,07,21.00
2008,09,14,15,08,21.00
2008,09,14,15,09,21.00
2008,09,14,15,10,21.10
2008,09,14,15,11,21.10
2008,09,14,15,12,21.10
2008,09,14,15,13,21.10
2008,09,14,15,14,21.10
2008,09,14,15,15,21.10
2008,09,14,15,16,21.20
2008,09,14,15,17,21.20
2008,09,14,15,18,21.30
2008,09,14,15,19,21.20
2008,09,14,15,20,21.20
2008,09,14,15,21,21.20
2008,09,14,15,22,21.10
2008,09,14,15,23,21.10
2008,09,14,15,24,21.10
2008,09,14,15,25,21.10
2008,09,14,15,26,21.10
2008,09,14,15,27,21.20
2008,09,14,15,28,21.20
2008,09,14,15,29,21.20
2008,09,14,15,30,21.20
2008,09,14,15,31,21.20
2008,09,14,15,32,21.20
2008,09,14,15,33,21.30
2008,09,14,15,34,21.30
2008,09,14,15,35,21.30
2008,09,14,15,36,21.30
2008,09,14,15,37,21.20
2008,09,14,15,38,21.20
2008,09,14,15,39,21.10
2008,09,14,15,40,21.10
2008,09,14,15,41,21.10
2008,09,14,15,42,21.10
2008,09,14,15,43,21.10
2008,09,14,15,44,21.10
2008,09,14,15,45,21.00
2008,09,14,15,46,21.00
2008,09,14,15,47,20.90
2008,09,14,15,48,20.90
2008,09,14,15,49,20.90
2008,09,14,15,50,21.00
2008,09,14,15,51,21.00
2008,09,14,15,52,21.00
2008,09,14,15,53,21.10
2008,09,14,15,54,21.10
2008,09,14,15,55,21.10
2008,09,14,15,56,21.10
2008,09,14,15,57,21.10
2008,09,14,15,58,21.10
2008,09,14,15,59,21.00
2008,09,14,16,00,21.10
2008,09,14,16,01,21.10
2008,09,14,16,02,21.10
2008,09,14,16,03,21.10
2008,09,14,16,04,21.10
2008,09,14,16,05,21.20
2008,09,14,16,06,21.30
2008,09,14,16,07,21.30
2008,09,14,16,08,21.30
2008,09,14,16,09,21.30
2008,09,14,16,10,21.30
2008,09,14,16,11,21.30
2008,09,14,16,12,21.40
2008,09,14,16,13,21.50
2008,09,14,16,14,21.60
2008,09,14,16,15,21.60
2008,09,14,16,16,21.60
2008,09,14,16,17,21.60
2008,09,14,16,18,21.70
2008,09,14,16,19,21.70
2008,09,14,16,20,21.80
2008,09,14,16,21,21.80
2008,09,14,16,22,21.80
2008,09,14,16,23,21.80
2008,09,14,16,24,21.80
2008,09,14,16,25,21.80
2008,09,14,16,26,21.70
2008,09,14,16,27,21.70
2008,09,14,16,28,21.60
2008,09,14,16,29,21.60
2008,09,14,16,30,21.60
2008,09,14,16,31,21.50
2008,09,14,16,32,21.40
2008,09,14,16,33,21.40
2008,09,14,16,34,21.30
2008,09,14,16,35,21.30
2008,09,14,16,36,21.30
2008,09,14,16,37,21.30
2008,09,14,16,38,21.30
2008,09,14,16,39,21.30
2008,09,14,16,40,21.30
2008,09,14,16,41,21.30
2008,09,14,16,42,21.30
2008,09,14,16,43,21.30
2008,09,14,16,44,21.30
2008,09,14,16,45,21.30
2008,09,14,16,46,21.30
2008,09,14,16,47,21.30
2008,09,14,16,48,21.30
2008,09,14,16,49,21.30
2008,09,14,16,50,21.30
2008,09,14,16,51,21.30
2008,09,14,16,52,21.30
2008,09,14,16,53,21.30
2008,09,14,16,54,21.30
2008,09,14,16,55,21.30
2008,09,14,16,56,21.30
2008,09,14,16,57,21.30
2008,09,14,16,58,21.30
2008,09,14,16,59,21.30
2008,09,14,17,00,21.30
2008,09,14,17,01,21.20
2008,09,14,17,02,21.20
2008,09,14,17,03,21.20
2008,09,14,17,04,21.20
2008,09,14,17,05,21.30
2008,09,14,17,06,21.30
2008,09,14,17,07,21.30
2008,09,14,17,08,21.30
2008,09,14,17,09,21.30
2008,09,14,17,10,21.30
2008,09,14,17,11,21.40
2008,09,14,17,12,21.40
2008,09,14,17,13,21.40
2008,09,14,17,14,21.30
2008,09,14,17,15,21.30
2008,09,14,17,16,21.30
2008,09,14,17,17,21.30
2008,09,14,17,18,21.30
2008,09,14,17,19,21.30
2008,09,14,17,20,21.30
2008,09,14,17,21,21.30
2008,09,14,17,22,21.30
2008,09,14,17,23,21.30
2008,09,14,17,24,21.30
2008,09,14,17,25,21.30
2008,09,14,17,26,21.30
2008,09,14,17,27,21.40
2008,09,14,17,28,21.40
2008,09,14,17,29,21.40
2008,09,14,17,30,21.40
2008,09,14,17,31,21.40
2008,09,14,17,32,21.40
2008,09,14,17,33,21.40